Temperature
22 22 21 21 19 19 20 22 24 24 25 26 26 25 24 24 23 21 21 21 22 21 21 21 21 20 20 20 20 19 19 20 19 19 19 19 19 19 19 18 18 18 18 18 18 18 18 18 18
22 22 21 20 20 20 21 23 24 25 26 26 25 25 24 23 21 21 20 21 22 22 21 21 21 20 20 20 20 19 19 19 19 19 19 19 19 19 18 18 18 19 19 19 18 18 18 18 18
22 21 21 19 20 21 23 25 25 26 27 26 25 24 23 22 21 21 21 22 22 22 21 21 21 20 20 20 20 19 19 19 19 19 19 19 19 19 19 19 19 19 19 19 19 18 18 18 18
22 21 21 20 21 23 25 26 26 27 27 26 24 23 23 23 22 22 22 22 22 21 21 21 21 20 20 20 20 19 19 19 19 19 19 19 19 19 19 19 19 19 19 19 19 18 18 18 18
22 22 20 20 22 25 27 28 28 27 26 25 24 22 22 22 23 22 22 22 22 21 21 21 20 20 20 20 20 20 19 19 19 19 19 19 19 19 19 19 19 19 19 19 19 18 18 18 18
22 21 20 21 24 27 28 28 28 26 25 24 23 22 21 22 22 21 21 21 22 21 21 20 20 20 20 20 20 20 19 19 19 19 19 19 19 19 19 19 19 19 19 19 19 18 18 18 18
22 20 21 23 25 27 28 29 28 26 25 24 24 21 21 20 21 21 21 21 21 21 21 20 20 20 20 20 20 20 19 19 19 19 19 19 19 19 19 19 19 19 19 19 19 18 18 18 18
24 21 22 23 25 27 29 29 28 27 25 25 24 21 21 20 20 21 21 21 21 21 20 20 20 20 20 20 20 20 19 19 19 19 19 19 18 18 18 18 18 18 18 18 18 18 18 18 18
25 21 21 23 25 27 29 28 27 26 25 24 24 23 23 21 20 20 19 20 20 20 20 20 20 20 20 20 19 19 19 19 19 19 18 18 18 18 18 18 18 18 18 18 18 18 18 18 18
25 21 23 26 27 27 29 28 27 26 24 23 23 23 22 21 20 20 19 19 19 19 20 20 20 20 19 19 19 19 19 19 19 18 18 18 18 18 18 18 18 18 18 18 18 18 18 18 18
25 24 26 27 28 29 28 28 28 25 23 23 23 22 21 21 20 20 19 20 20 20 19 19 19 19 19 19 19 19 19 19 18 18 18 18 18 18 17 17 18 18 18 18 18 18 18 17 17
26 26 28 28 29 29 28 28 26 25 25 25 25 23 22 21 20 20 20 19 19 19 19 19 19 19 19 19 19 19 19 18 18 18 18 18 18 17 17 17 17 17 17 17 17 17 17 17 17
26 27 28 29 29 29 28 27 26 25 25 24 23 22 22 22 21 20 20 20 19 19 19 19 19 19 19 19 19 19 18 18 18 18 18 18 18 18 17 17 17 17 17 17 17 17 17 17 17
26 27 27 28 28 28 27 26 25 24 24 23 22 22 22 22 21 20 19 19 19 19 19 19 19 19 19 19 19 18 18 18 18 18 18 18 18 18 17 17 17 17 17 17 17 17 17 17 17
28 26 26 26 27 27 27 25 25 24 23 22 22 22 21 21 21 20 20 19 19 19 18 18 19 19 18 18 18 18 18 18 18 18 18 18 17 17 17 17 17 17 17 17 17 16 16 16 16
25 25 24 26 26 27 26 24 24 24 23 22 21 20 20 20 21 20 20 19 19 18 18 18 18 18 18 18 18 18 18 18 18 18 18 18 17 17 17 17 17 17 17 16 16 16 16 16 16
23 23 24 25 26 26 25 23 23 23 23 21 21 20 20 20 20 20 19 19 19 18 18 18 18 18 18 18 18 18 18 18 18 18 18 17 17 17 17 17 17 17 16 16 16 16 16 16 16
22 23 25 25 26 26 24 23 22 22 22 21 20 20 20 19 19 19 19 19 19 18 18 18 18 18 18 18 18 18 18 18 18 18 18 17 17 17 17 17 17 16 16 16 16 16 16 16 16
25 25 25 26 27 25 24 23 22 22 21 21 20 20 19 19 19 19 19 19 18 18 18 18 18 18 18 18 18 18 18 18 17 17 17 17 17 17 17 17 16 16 16 16 16 16 16 16 16
26 25 25 26 27 25 23 22 22 21 21 21 20 20 19 19 18 19 18 18 18 18 18 18 18 18 18 18 18 18 18 18 17 17 17 17 17 17 17 16 16 16 16 16 16 16 16 16 16
26 25 26 26 26 23 23 21 21 21 21 21 20 20 20 19 19 19 19 18 18 18 18 18 18 18 18 18 18 18 17 17 17 17 17 17 17 17 16 16 16 16 16 16 15 16 16 16 16
25 27 27 27 24 20 22 20 20 20 20 20 20 20 20 20 19 19 19 18 18 18 18 18 18 18 18 18 18 18 18 18 18 18 17 17 17 16 16 16 16 16 15 15 15 15 15 15 16
26 27 26 25 22 20 20 20 19 19 20 20 20 20 20 20 19 19 19 19 18 18 18 18 18 18 18 18 18 18 18 18 18 17 17 17 16 16 16 16 16 15 15 15 15 15 15 15 15
27 26 23 20 19 19 19 19 19 19 19 20 20 20 20 20 19 19 19 19 18 18 18 18 18 18 18 18 18 18 18 18 17 17 17 17 17 16 16 16 15 15 15 15 15 15 15 15 15
26 23 21 21 19 19 19 19 19 20 20 20 20 20 20 20 19 19 19 18 18 18 18 18 18 18 18 18 18 18 18 17 18 17 17 17 17 17 16 16 16 15 15 15 15 15 15 15 15
25 23 21 21 20 19 19 19 19 21 21 21 21 21 20 20 20 20 20 19 19 18 18 18 18 18 18 18 18 17 17 17 17 17 17 17 17 17 16 16 16 16 16 15 15 15 15 15 15
25 24 22 20 20 19 19 19 20 20 21 21 21 20 20 20 20 20 20 20 19 19 19 19 19 19 18 18 18 17 17 17 17 17 17 17 17 17 16 16 16 16 15 15 15 15 15 15 15
25 23 20 20 20 20 19 19 19 20 20 20 20 20 20 20 20 20 20 20 20 20 19 19 19 19 19 18 18 18 18 17 17 17 17 17 17 17 16 16 16 16 15 15 15 15 15 15 15
24 23 20 19 19 19 19 19 20 19 19 19 20 20 20 20 20 20 20 20 20 20 19 19 19 19 18 18 18 18 18 18 17 17 17 17 17 17 16 16 16 16 16 15 15 15 15 15 15
24 22 20 20 20 18 18 19 21 20 19 19 20 21 21 21 20 20 20 20 20 20 19 19 19 19 19 18 18 18 18 18 17 17 17 17 17 17 16 16 16 16 16 16 15 15 15 15 15
Wind_Speed
8 6 3 0 3 3 2 4 4 4 1 3 8 10 9 6 4 5 6 15 20 19 20 23 24 23 22 21 20 20 19 19 18 18 18 18 17 17 17 17 16 16 16 16 15 15 14 14 14
5 5 2 1 3 1 4 5 6 6 5 9 10 10 9 7 7 9 9 17 21 19 20 22 25 24 23 22 21 20 19 19 18 18 17 17 17 17 17 16 16 15 15 15 14 14 13 13 13
4 4 2 2 2 5 5 5 8 6 6 7 6 6 6 6 9 8 11 20 19 17 20 23 26 25 24 22 21 20 20 19 18 18 17 17 17 16 16 15 15 15 15 14 13 12 12 11 11
1 1 1 1 7 8 7 6 7 7 5 7 9 7 4 4 7 12 20 20 18 15 19 24 26 25 24 23 22 20 20 19 18 18 17 17 17 16 15 15 15 14 14 13 12 11 10 10 9
2 2 0 4 7 7 7 8 6 6 6 8 10 8 3 2 15 22 20 19 19 15 17 23 25 25 24 23 22 20 19 19 18 18 17 16 16 16 15 14 14 14 13 12 11 9 8 8 8
1 2 0 5 7 7 4 6 7 10 10 11 10 8 3 8 18 19 18 17 18 17 15 21 25 25 24 23 22 21 19 19 18 18 16 16 16 15 15 14 14 13 12 11 9 8 7 6 7
3 1 4 6 7 5 2 6 9 10 10 9 11 7 5 8 14 17 16 16 16 16 14 15 20 22 23 22 21 21 20 19 18 17 16 16 15 14 14 14 13 12 11 10 8 6 5 5 5
5 1 5 4 5 4 1 4 8 11 9 10 9 9 8 12 15 15 15 14 14 13 13 12 15 17 18 19 21 20 20 18 17 17 16 15 15 14 14 13 12 11 10 9 7 5 4 3 4
2 0 6 5 4 4 1 5 4 7 9 5 4 6 11 19 18 16 14 12 13 13 11 11 12 14 16 17 18 19 19 18 17 16 16 14 12 12 12 12 12 11 9 8 6 5 3 2 3
5 5 9 7 5 3 1 3 6 6 8 5 6 9 15 18 18 18 17 16 15 15 13 11 11 12 14 15 15 14 14 15 14 13 13 12 11 11 11 12 11 10 8 7 5 4 2 2 2
6 8 9 9 8 2 1 1 3 9 5 8 12 15 15 16 16 18 18 18 17 16 14 11 11 12 11 9 12 10 10 12 12 12 12 11 9 8 8 8 7 7 6 5 4 3 2 1 1
6 11 11 10 6 2 1 1 3 5 8 12 16 17 15 15 15 16 17 16 16 16 14 12 11 10 9 10 9 9 8 8 8 10 12 10 7 5 6 5 6 6 5 4 3 2 1 1 2
6 9 10 9 4 1 1 2 3 4 8 13 15 15 14 13 12 12 15 16 15 14 14 13 12 10 9 8 7 8 7 8 9 10 11 11 7 5 5 5 5 5 5 4 3 2 1 2 2
6 7 8 6 3 2 1 1 4 5 11 14 14 14 13 13 12 11 14 14 15 13 14 13 13 11 9 8 6 6 8 9 9 9 11 12 10 7 5 4 3 4 4 4 4 3 2 2 2
5 7 8 5 3 2 3 3 1 9 11 11 11 11 11 10 10 12 14 15 16 14 13 13 13 12 11 9 8 7 9 10 8 8 11 11 11 9 6 4 3 3 5 4 3 2 2 2 1
6 5 6 8 3 2 4 4 3 9 11 9 9 9 9 7 9 11 12 12 13 14 13 12 13 13 11 9 8 6 9 9 8 9 10 10 11 10 7 4 3 4 5 4 3 2 2 2 1
4 4 8 9 4 3 4 4 3 7 12 10 9 9 9 8 7 8 12 13 14 15 15 11 11 12 11 9 7 7 8 8 9 10 9 10 10 10 8 4 4 6 4 3 2 2 2 1 1
7 7 8 8 5 2 3 4 4 6 9 11 9 8 9 10 9 8 11 13 13 13 13 12 11 11 10 8 7 6 6 5 7 8 9 10 9 10 9 5 5 6 4 3 3 3 2 1 1
10 11 12 10 4 4 5 4 5 6 6 8 9 9 9 9 8 8 9 13 14 13 13 13 12 10 9 7 7 7 6 5 5 5 9 10 9 10 8 4 4 4 4 3 3 2 3 2 1
12 11 10 7 3 2 2 1 2 4 5 7 9 9 10 9 8 9 9 11 13 13 13 13 13 11 10 8 6 5 5 4 4 4 6 9 9 9 8 6 4 4 4 4 3 3 2 2 2
12 10 8 6 1 6 4 3 2 3 3 4 6 8 10 13 14 12 11 11 12 13 15 14 13 11 10 8 6 5 4 4 3 4 4 5 9 9 8 7 5 4 4 4 3 3 4 2 2
11 11 7 4 2 3 3 2 6 3 2 2 5 7 9 11 12 12 13 13 13 13 13 12 12 11 10 9 9 10 7 6 5 5 4 4 7 8 9 8 7 5 4 4 3 4 3 4 2
9 8 3 0 4 3 4 1 7 3 3 4 4 7 9 11 13 13 13 15 14 13 13 12 11 10 9 10 10 10 6 5 4 5 6 5 4 6 8 8 7 5 4 4 4 4 4 3 3
7 3 5 6 6 3 2 1 6 4 5 5 3 6 9 11 12 12 12 12 11 11 11 12 12 10 10 10 10 9 9 8 8 7 6 5 3 3 5 7 6 5 4 5 4 4 5 3 3
3 2 4 6 4 3 3 2 8 8 7 6 5 5 8 11 13 13 13 13 13 13 13 12 13 11 10 10 10 9 9 9 10 9 8 6 4 4 5 5 5 5 5 5 5 4 4 4 3
6 6 6 5 5 3 2 4 8 8 7 3 3 5 8 9 12 14 14 14 14 15 14 14 13 11 11 11 10 9 9 7 7 8 8 8 6 6 7 7 7 7 7 6 5 4 4 3 3
5 4 7 7 3 2 3 5 8 5 4 1 3 6 8 9 12 14 14 14 14 14 14 14 14 12 12 12 10 9 9 9 8 8 8 7 6 7 8 8 7 7 7 6 6 4 4 4 3
6 5 5 5 5 3 2 4 5 5 5 3 4 6 6 8 10 13 14 14 14 14 14 13 13 13 11 11 11 10 9 9 9 8 9 8 8 7 8 9 8 8 7 7 6 4 4 5 4
2 3 5 4 5 6 4 6 7 9 7 6 6 5 6 7 10 11 11 12 12 12 12 12 12 11 11 11 10 10 9 9 8 8 9 8 7 8 9 10 9 8 8 7 7 6 6 6 5
5 6 7 5 4 5 5 7 6 7 8 7 7 7 7 8 9 10 10 10 9 10 11 12 13 12 12 11 10 10 9 9 9 9 9 8 9 9 10 10 10 10 9 9 9 8 7 7 7
Wind_Direction
187 191 184 71 51 47 268 241 221 235 263 80 98 102 104 94 131 146 140 141 138 143 146 144 140 137 134 132 129 127 124 122 119 117 115 114 113 113 114 112 111 110 109 107 105 103 100 99 99
180 191 176 61 97 100 256 227 223 226 156 119 93 90 82 70 83 112 127 141 139 142 143 143 141 138 137 135 134 132 130 127 125 123 121 119 117 116 116 115 113 111 111 109 107 104 100 98 97
206 199 161 122 189 202 232 216 205 197 148 128 99 75 87 114 118 131 145 142 137 139 143 145 142 140 139 138 137 136 134 132 130 129 126 124 122 120 119 119 117 115 113 112 109 106 102 98 95
183 101 56 157 245 238 228 219 176 151 114 105 108 86 66 132 142 140 142 141 137 139 142 146 144 142 141 141 140 139 138 136 134 132 130 128 127 126 124 123 121 119 118 116 112 107 100 93 85
131 110 10 269 259 254 236 216 179 131 123 107 104 106 85 65 126 136 143 142 140 140 144 146 145 144 144 144 143 142 141 139 138 137 135 133 132 130 128 127 126 124 123 121 116 110 100 88 74
43 99 189 266 271 279 227 164 121 115 115 112 106 115 112 125 131 141 144 143 141 141 143 147 147 146 146 146 146 146 145 143 142 141 139 137 136 134 134 133 132 130 129 127 123 115 103 84 68
160 174 239 258 285 294 171 142 136 128 124 134 132 119 126 139 139 142 141 141 140 142 145 147 148 148 149 149 149 150 149 148 147 144 143 142 142 141 139 138 138 137 137 135 132 126 112 88 70
179 118 290 283 287 302 138 112 130 125 121 130 130 141 160 162 145 140 137 137 139 143 148 147 148 148 150 152 154 153 152 152 150 148 148 149 149 148 146 146 146 146 145 145 144 141 127 97 73
190 208 268 261 268 289 51 105 106 106 115 118 128 142 149 144 140 137 135 138 144 149 152 152 151 151 152 153 158 157 156 156 155 155 156 154 153 154 155 157 156 155 155 155 152 151 138 105 71
163 199 241 236 246 271 319 118 139 117 108 101 97 111 131 141 146 147 151 153 156 158 159 158 157 155 155 158 156 159 157 159 159 162 161 159 162 166 166 168 164 161 158 155 157 156 139 107 69
198 219 248 266 263 268 325 14 113 131 140 164 153 148 146 149 153 156 161 161 162 161 162 162 163 161 163 155 157 161 159 162 167 169 169 167 167 168 162 165 168 164 156 144 140 134 112 107 105
235 256 256 264 268 304 255 80 93 146 173 168 156 150 151 157 162 165 165 164 162 162 161 162 167 164 164 156 162 164 164 167 168 173 171 162 156 156 157 157 159 156 149 144 137 137 142 138 134
254 263 273 275 284 266 92 86 116 131 136 146 145 147 152 160 165 166 167 164 162 163 159 164 165 166 161 155 166 165 156 170 169 167 165 159 153 153 154 156 154 155 150 147 142 139 137 119 112
273 287 294 297 298 296 128 138 110 157 142 144 151 156 161 164 163 161 163 164 162 163 161 166 164 164 161 162 162 159 162 159 156 157 157 154 152 152 146 144 147 154 155 153 149 146 141 141 136
312 321 318 304 293 269 93 342 185 156 146 145 155 162 165 165 162 167 169 166 160 157 160 165 162 160 161 158 157 156 156 150 147 149 149 147 146 147 144 138 138 153 149 138 121 110 102 108 112
343 336 304 289 273 251 120 248 236 149 147 153 158 159 166 169 174 167 163 157 152 150 153 162 165 158 155 150 142 144 149 145 145 145 142 142 143 144 136 131 133 139 130 123 115 102 95 79 82
342 288 276 284 250 204 142 222 220 159 150 159 173 173 170 173 180 163 158 154 152 154 155 158 156 154 152 146 139 145 147 144 148 145 140 139 139 138 129 126 126 125 114 108 127 97 109 100 77
264 274 278 267 256 178 166 217 190 164 156 164 173 180 173 176 179 164 156 154 154 158 156 154 149 153 149 139 134 136 137 142 145 146 147 142 139 137 129 122 122 118 105 102 100 100 87 112 141
255 271 278 275 253 150 181 198 195 174 165 171 179 178 176 175 170 162 160 161 161 163 159 156 155 157 152 148 148 149 151 152 150 157 152 147 143 137 129 122 121 113 116 125 117 99 75 48 56
263 269 277 287 282 135 137 152 183 183 201 192 187 180 172 164 161 169 166 166 166 166 165 162 163 166 166 164 156 149 146 152 155 153 148 153 150 145 139 135 136 125 117 107 96 95 90 37 59
271 256 248 248 59 49 83 360 285 222 214 199 193 187 175 174 173 174 173 174 173 172 169 171 169 169 169 159 140 131 112 108 120 141 150 161 154 150 145 143 137 133 130 131 122 112 113 92 26
269 257 240 237 84 8 41 259 280 268 295 214 193 188 181 180 177 177 176 175 180 179 171 168 167 168 168 160 158 157 156 160 172 167 164 160 154 149 148 147 144 141 135 139 135 115 112 113 72
257 263 260 161 110 68 14 85 291 327 301 270 221 192 184 183 178 176 177 178 178 174 171 170 168 169 168 168 166 162 159 161 152 149 154 157 152 155 153 150 145 144 141 144 132 114 107 112 119
263 300 31 47 72 50 288 162 282 264 256 256 244 204 186 182 177 175 175 169 171 171 171 169 170 173 172 171 168 166 166 161 154 160 167 169 162 162 161 154 150 152 148 149 146 134 126 122 116
313 75 11 350 6 254 248 206 255 253 259 238 235 210 186 177 175 174 173 172 173 174 174 173 173 176 176 174 175 175 174 169 170 172 176 174 173 181 186 165 161 161 161 156 146 142 143 139 133
252 161 172 216 230 241 274 244 261 272 280 253 199 179 171 173 177 178 179 178 178 179 177 176 179 179 178 179 179 179 178 177 179 180 178 183 187 191 185 176 174 172 166 161 152 150 160 151 150
232 229 180 151 140 135 256 280 299 299 318 263 156 157 174 182 182 183 181 180 180 181 183 184 183 182 183 183 179 182 180 180 180 182 181 185 190 192 185 181 178 174 170 165 157 165 176 164 167
183 172 99 124 160 194 240 256 246 263 264 251 173 172 179 188 189 186 184 184 185 186 186 185 185 186 185 183 184 189 185 183 182 181 186 190 192 190 180 182 180 176 176 173 167 172 182 174 182
233 123 128 132 153 156 204 253 227 216 215 218 204 184 181 194 191 186 185 186 184 184 184 187 187 184 185 185 185 184 185 185 181 186 191 191 190 185 182 183 181 181 182 179 177 186 184 187 198
189 180 153 158 205 161 172 251 255 210 209 204 195 195 190 191 181 175 176 176 177 181 185 189 187 186 188 186 184 187 185 184 186 192 195 189 187 185 184 181 182 188 189 186 185 194 192 194 201
Height
1518 1518 1519 1519 1521 1527 1528 1517 1507 1502 1500 1497 1496 1498 1501 1505 1510 1518 1514 1516 1521 1524 1528 1532 1534 1536 1538 1540 1541 1542 1543 1544 1545 1546 1547 1548 1549 1551 1552 1553 1553 1554 1555 1556 1556 1557 1558 1558 1559
1518 1518 1519 1519 1525 1535 1527 1509 1503 1497 1497 1497 1497 1499 1502 1507 1508 1510 1512 1517 1521 1524 1528 1531 1534 1536 1538 1540 1541 1543 1544 1545 1546 1547 1548 1549 1550 1551 1553 1554 1554 1555 1556 1557 1558 1559 1560 1560 1561
1517 1518 1520 1520 1524 1526 1516 1501 1497 1494 1494 1494 1498 1501 1504 1507 1508 1510 1513 1518 1522 1525 1528 1531 1534 1536 1538 1540 1542 1543 1545 1545 1547 1548 1549 1550 1551 1552 1554 1555 1556 1556 1557 1558 1560 1561 1561 1562 1563
1517 1518 1519 1522 1521 1509 1501 1494 1492 1492 1494 1495 1497 1503 1506 1509 1509 1511 1514 1519 1522 1525 1529 1531 1534 1536 1538 1540 1542 1544 1545 1546 1547 1549 1550 1551 1552 1553 1554 1556 1557 1558 1559 1560 1561 1562 1563 1564 1565
1516 1516 1520 1523 1513 1498 1492 1489 1489 1491 1493 1496 1496 1503 1507 1509 1510 1512 1515 1518 1521 1525 1529 1531 1534 1536 1538 1540 1542 1544 1546 1547 1548 1549 1551 1552 1553 1554 1555 1556 1557 1559 1560 1561 1562 1564 1565 1566 1567
1516 1515 1525 1525 1508 1492 1487 1487 1489 1491 1493 1495 1497 1503 1508 1509 1510 1513 1516 1519 1522 1524 1528 1531 1534 1536 1538 1540 1542 1544 1546 1547 1548 1550 1551 1552 1554 1555 1556 1557 1558 1559 1561 1562 1563 1565 1566 1567 1568
1515 1517 1520 1514 1505 1493 1486 1485 1487 1489 1492 1494 1496 1502 1508 1510 1511 1514 1517 1520 1522 1525 1528 1531 1534 1536 1539 1541 1543 1544 1546 1548 1549 1550 1551 1553 1554 1555 1556 1558 1559 1560 1561 1563 1564 1565 1567 1568 1569
1512 1514 1515 1511 1503 1494 1485 1484 1486 1487 1491 1494 1495 1499 1504 1508 1511 1514 1517 1519 1522 1525 1528 1531 1533 1536 1538 1541 1543 1545 1546 1548 1549 1551 1552 1553 1554 1556 1557 1558 1559 1561 1562 1563 1564 1566 1567 1568 1569
1510 1517 1518 1508 1500 1492 1484 1485 1487 1488 1489 1492 1494 1495 1498 1505 1509 1513 1516 1519 1521 1524 1527 1530 1533 1535 1538 1540 1543 1545 1546 1548 1549 1551 1552 1554 1555 1556 1557 1558 1560 1561 1562 1563 1565 1566 1567 1568 1569
1506 1515 1506 1494 1491 1488 1484 1484 1486 1489 1490 1492 1494 1496 1500 1504 1507 1510 1513 1515 1518 1521 1525 1529 1532 1534 1537 1540 1542 1544 1546 1548 1549 1551 1552 1554 1555 1556 1557 1558 1560 1561 1562 1563 1565 1566 1567 1568 1569
1501 1502 1492 1488 1485 1484 1483 1483 1483 1487 1491 1490 1491 1494 1499 1502 1505 1507 1510 1512 1515 1519 1524 1527 1531 1533 1536 1539 1541 1544 1545 1547 1549 1551 1552 1553 1555 1556 1557 1558 1559 1561 1562 1563 1564 1565 1566 1567 1568
1496 1491 1488 1484 1482 1481 1481 1482 1483 1484 1486 1487 1488 1491 1496 1499 1503 1505 1507 1510 1513 1517 1521 1526 1530 1533 1536 1539 1541 1543 1545 1547 1548 1550 1552 1553 1554 1556 1557 1558 1559 1560 1561 1562 1564 1565 1566 1567 1567
1492 1489 1485 1482 1480 1479 1480 1481 1483 1484 1485 1486 1488 1491 1494 1497 1500 1503 1505 1508 1510 1514 1519 1523 1528 1532 1535 1538 1541 1543 1544 1546 1548 1550 1551 1553 1554 1555 1557 1558 1558 1559 1560 1561 1563 1564 1565 1566 1566
1489 1486 1483 1481 1479 1479 1479 1481 1482 1485 1485 1486 1488 1490 1492 1494 1497 1501 1503 1505 1509 1513 1516 1521 1526 1531 1534 1537 1540 1542 1544 1546 1548 1550 1551 1552 1554 1555 1556 1557 1558 1559 1559 1560 1561 1563 1564 1565 1565
1488 1487 1483 1479 1477 1477 1479 1483 1482 1484 1485 1487 1489 1490 1491 1493 1496 1498 1500 1502 1505 1510 1514 1518 1524 1529 1532 1536 1539 1541 1544 1545 1547 1549 1551 1552 1553 1554 1555 1556 1557 1558 1559 1560 1561 1562 1563 1564 1564
1488 1492 1495 1481 1476 1475 1482 1492 1482 1483 1484 1488 1490 1491 1492 1493 1495 1496 1499 1500 1504 1508 1512 1517 1523 1527 1530 1534 1537 1540 1543 1545 1547 1549 1550 1551 1552 1553 1554 1555 1556 1557 1558 1559 1560 1561 1562 1563 1564
1498 1504 1498 1486 1475 1474 1481 1488 1482 1482 1483 1486 1489 1490 1490 1492 1495 1496 1497 1499 1502 1505 1511 1515 1520 1525 1529 1533 1536 1539 1542 1544 1546 1547 1549 1550 1552 1553 1554 1554 1556 1557 1558 1558 1559 1560 1561 1562 1563
1507 1503 1495 1488 1475 1475 1482 1485 1482 1482 1482 1484 1487 1489 1490 1491 1493 1495 1497 1498 1501 1504 1509 1514 1518 1523 1527 1532 1535 1538 1540 1543 1545 1546 1548 1549 1551 1552 1553 1554 1555 1556 1557 1558 1559 1560 1561 1562 1563
1493 1494 1492 1481 1471 1476 1482 1484 1482 1481 1482 1483 1485 1486 1488 1489 1492 1494 1496 1497 1500 1503 1508 1512 1516 1521 1526 1529 1532 1535 1538 1541 1543 1545 1547 1548 1550 1551 1552 1553 1554 1555 1556 1557 1558 1559 1560 1561 1562
1488 1492 1488 1479 1470 1476 1483 1486 1482 1482 1482 1481 1482 1483 1485 1489 1491 1493 1495 1497 1499 1501 1506 1511 1516 1520 1524 1527 1531 1534 1537 1540 1542 1544 1546 1547 1549 1550 1551 1552 1553 1554 1556 1556 1557 1559 1560 1561 1562
1484 1486 1483 1480 1475 1479 1485 1492 1486 1481 1481 1480 1481 1482 1483 1486 1488 1490 1493 1496 1498 1501 1505 1510 1514 1518 1522 1527 1530 1534 1536 1538 1540 1542 1544 1546 1548 1549 1550 1551 1553 1554 1555 1556 1557 1558 1559 1560 1561
1486 1472 1471 1473 1485 1499 1494 1507 1491 1482 1480 1479 1479 1480 1482 1485 1487 1488 1490 1493 1497 1499 1503 1508 1513 1517 1521 1525 1528 1531 1533 1535 1538 1540 1543 1545 1546 1548 1549 1551 1552 1553 1554 1555 1556 1557 1559 1560 1560
1474 1466 1468 1474 1486 1501 1500 1505 1498 1485 1485 1480 1478 1479 1480 1483 1485 1487 1488 1491 1495 1499 1503 1507 1512 1516 1520 1523 1526 1529 1532 1535 1537 1539 1541 1543 1545 1547 1548 1549 1551 1552 1553 1554 1555 1557 1558 1559 1560
1464 1468 1476 1485 1496 1513 1506 1508 1503 1490 1483 1478 1476 1477 1478 1481 1484 1486 1489 1491 1495 1499 1503 1507 1510 1514 1518 1521 1524 1527 1530 1533 1535 1538 1540 1542 1544 1545 1547 1548 1550 1551 1552 1553 1554 1556 1557 1558 1559
1465 1483 1503 1508 1517 1517 1504 1505 1499 1479 1474 1473 1472 1473 1475 1478 1482 1485 1488 1490 1494 1498 1501 1505 1509 1512 1516 1519 1522 1525 1528 1531 1533 1536 1538 1540 1542 1544 1545 1547 1548 1549 1551 1552 1553 1554 1556 1557 1558
1466 1477 1503 1515 1518 1515 1506 1504 1488 1472 1469 1469 1469 1471 1474 1477 1480 1483 1485 1488 1492 1496 1499 1503 1507 1510 1513 1516 1519 1523 1526 1529 1532 1534 1537 1538 1540 1542 1544 1546 1547 1548 1549 1550 1552 1553 1554 1555 1556
1465 1471 1473 1494 1503 1514 1509 1497 1481 1470 1469 1469 1470 1472 1474 1476 1478 1481 1484 1487 1491 1494 1497 1501 1505 1508 1511 1514 1518 1521 1524 1527 1530 1532 1535 1537 1539 1541 1543 1544 1545 1547 1548 1549 1550 1551 1552 1553 1554
1454 1462 1480 1494 1509 1516 1510 1502 1493 1478 1473 1471 1471 1472 1472 1475 1478 1480 1482 1486 1489 1493 1496 1499 1502 1506 1509 1512 1515 1518 1522 1525 1528 1530 1532 1535 1537 1539 1540 1542 1543 1545 1546 1547 1548 1549 1550 1551 1552
1458 1464 1474 1488 1493 1508 1517 1504 1473 1472 1470 1469 1469 1469 1471 1474 1477 1479 1482 1485 1488 1492 1495 1498 1501 1504 1507 1510 1513 1516 1519 1522 1525 1527 1530 1532 1534 1536 1538 1540 1541 1542 1544 1545 1546 1547 1548 1549 1550
1450 1458 1469 1486 1492 1494 1502 1496 1463 1464 1465 1466 1467 1468 1470 1472 1475 1477 1480 1484 1487 1490 1493 1496 1499 1501 1504 1507 1510 1513 1516 1519 1522 1524 1527 1529 1531 1533 1535 1536 1538 1539 1540 1541 1543 1544 1545 1546 1547